Temp
32 30 30 29 31 33 33 34 35 35 35 34 33 31 30 27 24 29 31 30 31 29 27 28 27 27 26 26 28 28 29 29 29 30 30 31 31 31 32 32 32 32 32 32 32 32 32 31 31 31 30 30 30 30 29 28 28 27 27 27 26 26 26 26 26 26 26 26 26 26 27 27 26 26 26 26 27 27 26 25 25 24 24 24 24 24
32 29 30 32 33 34 34 34 35 35 34 34 33 30 29 29 27 30 31 30 31 28 25 28 29 27 26 26 27 27 28 29 29 30 30 30 31 31 32 32 32 32 32 32 32 32 32 31 31 31 30 30 30 30 29 28 28 28 27 27 26 26 26 26 26 26 26 26 26 27 27 27 27 26 26 27 27 27 26 25 25 25 24 24 24 24
29 29 32 34 34 34 34 34 34 34 34 34 33 30 27 30 30 29 30 31 31 28 25 28 29 27 27 26 26 26 27 28 29 30 30 31 31 31 31 31 32 32 32 32 32 32 32 32 31 31 30 30 30 29 29 28 28 28 27 27 26 26 26 26 26 26 26 26 26 27 27 27 27 27 27 27 27 27 26 25 25 25 24 24 24 24
26 29 34 34 34 34 34 34 34 32 33 34 33 29 27 31 30 25 27 29 29 28 26 27 27 26 26 26 25 26 27 27 28 28 28 29 31 31 31 32 32 31 31 31 31 32 32 32 31 31 30 30 30 29 29 28 28 28 27 26 26 26 26 26 26 26 26 25 25 26 26 26 27 27 27 27 27 27 26 25 25 24 24 24 25 24
29 32 35 34 34 34 33 33 33 31 30 33 34 31 29 32 31 29 30 30 29 30 29 28 25 23 24 25 25 26 26 26 27 26 25 27 30 31 31 32 32 32 31 31 31 32 32 32 31 31 30 30 30 29 29 29 29 28 28 26 26 26 26 26 25 25 25 25 25 25 25 25 26 26 26 26 26 26 26 26 26 25 24 25 25 25
32 34 34 34 34 33 32 32 32 31 29 30 34 35 33 34 34 33 33 31 27 26 30 30 23 21 24 25 26 25 24 25 26 26 26 28 29 30 31 31 32 32 31 32 32 32 32 32 31 31 30 30 30 30 30 29 29 29 28 26 26 26 26 26 25 25 25 25 25 25 25 25 26 26 26 26 26 26 26 27 26 25 25 25 25 25
33 34 33 33 33 32 31 31 33 33 29 27 32 36 36 35 34 32 31 29 23 24 30 32 25 21 23 25 27 26 24 25 25 26 27 28 28 29 30 31 31 32 32 32 32 32 32 32 31 31 30 31 31 30 30 30 29 29 28 27 26 26 26 26 25 25 25 25 25 25 26 26 26 27 27 26 26 26 26 26 26 26 25 25 26 26
34 33 31 32 32 31 31 30 32 34 29 26 33 37 36 35 33 32 31 28 26 28 30 31 28 23 22 24 27 27 25 25 25 25 26 27 28 29 30 31 31 32 32 32 32 32 32 32 31 31 31 31 31 30 30 30 29 29 28 27 26 26 26 26 25 25 25 25 25 26 26 27 27 27 27 26 26 26 26 26 27 26 26 25 26 26
34 31 31 32 31 31 31 31 33 34 31 30 34 36 35 35 34 34 32 28 29 28 24 27 29 24 22 24 27 27 25 25 25 25 26 27 28 28 30 31 31 32 32 32 32 32 32 32 32 31 31 31 31 31 30 30 30 28 28 27 27 26 26 26 25 25 25 25 25 26 27 27 27 27 27 26 26 26 27 27 26 26 26 25 25 26
33 32 32 32 31 31 32 34 34 34 33 34 34 34 35 35 35 35 32 28 28 25 22 25 27 23 22 23 25 25 25 25 27 26 26 27 27 27 29 30 31 32 32 32 32 33 33 32 32 32 31 31 31 31 31 30 30 29 28 27 27 26 26 26 25 25 25 25 25 26 26 27 27 27 27 27 26 26 26 26 26 26 26 26 25 25
33 33 33 33 33 33 34 34 34 34 34 34 34 33 33 33 34 33 32 29 25 23 23 25 27 25 22 23 24 25 26 27 28 27 26 27 27 27 28 29 31 32 32 32 33 33 33 32 32 32 32 31 31 31 31 30 30 29 28 27 27 26 26 26 25 25 26 25 26 26 26 26 26 27 27 26 26 26 26 26 26 26 26 26 26 26
32 31 31 33 33 34 34 34 34 35 34 33 33 32 29 28 29 28 27 27 23 22 24 26 28 26 22 24 27 28 29 30 29 28 27 27 28 28 27 28 31 32 32 32 32 33 33 32 32 32 32 31 31 31 31 31 30 30 28 27 27 26 26 26 26 26 26 26 26 26 26 26 26 27 26 26 26 26 26 26 26 26 26 26 26 26
30 31 31 32 33 34 33 32 33 33 33 33 32 28 24 23 24 23 23 23 22 22 25 28 28 25 23 26 30 31 31 32 31 30 29 29 28 29 28 29 29 30 31 32 32 32 32 32 32 32 32 31 31 31 31 31 30 30 29 28 27 26 26 26 26 26 26 26 26 26 26 26 26 26 26 26 26 26 26 26 26 26 26 26 26 26
26 30 32 32 32 33 32 30 28 29 31 31 29 25 23 22 22 22 22 23 23 23 26 29 28 24 24 28 31 31 31 32 31 29 30 30 29 29 29 29 28 27 28 31 32 32 32 32 32 32 32 31 31 31 31 31 30 30 29 28 27 27 26 26 26 26 26 26 26 26 26 26 26 26 26 26 26 26 26 26 26 26 26 26 26 26
23 25 29 31 31 32 32 32 31 31 32 32 32 30 25 23 23 22 22 23 23 23 25 27 26 23 23 27 30 30 29 31 31 27 28 30 31 30 29 29 28 27 26 28 31 32 32 32 32 32 32 31 31 31 31 30 30 30 29 28 27 27 26 26 26 26 26 26 26 26 26 26 26 26 26 26 27 27 27 27 27 26 27 26 26 26
23 24 30 33 32 33 32 32 34 33 31 32 35 31 25 27 27 24 23 24 23 23 24 24 25 26 27 28 29 28 27 31 32 28 27 30 31 30 29 29 29 28 26 26 29 31 32 32 32 32 31 31 31 31 31 30 30 30 29 28 28 27 27 26 26 26 26 26 26 26 26 26 26 26 27 27 26 26 27 27 27 26 26 27 26 26
23 24 32 33 32 34 32 33 35 32 29 31 31 27 29 34 31 24 23 25 24 23 23 24 24 27 28 28 30 30 30 31 33 31 30 30 31 30 29 29 29 28 27 26 27 29 31 32 32 32 32 31 31 31 31 30 30 30 29 29 28 27 27 27 26 26 26 26 26 26 26 26 26 26 27 27 26 26 27 27 26 26 26 27 26 26
25 24 30 33 30 32 33 33 34 34 32 30 27 29 33 34 32 27 23 23 23 22 23 24 24 24 24 25 29 32 32 30 31 33 32 30 29 29 30 29 28 28 28 27 27 27 29 31 31 32 32 31 31 30 30 30 30 30 29 29 28 28 28 27 27 27 27 26 26 26 26 26 26 26 27 27 27 27 27 26 26 26 27 27 27 27
28 23 27 33 31 32 34 33 31 33 35 32 31 34 33 26 25 26 23 23 23 22 23 23 23 24 23 24 28 31 31 30 30 32 32 31 29 28 29 29 28 28 28 27 27 27 28 30 31 31 31 31 30 30 30 30 30 30 29 29 29 29 28 28 28 28 27 27 27 27 26 26 26 27 27 27 27 27 27 27 26 26 27 27 27 27
30 24 24 31 33 32 32 30 27 28 33 34 33 35 33 28 26 25 24 24 23 22 23 23 23 24 25 28 30 30 30 30 32 32 30 30 30 28 28 29 28 28 28 27 27 28 28 30 31 31 31 31 30 30 30 30 30 30 29 29 29 29 29 29 29 28 28 28 27 27 27 27 27 27 27 27 27 27 28 27 26 26 26 26 26 26
31 26 23 28 33 30 28 29 29 29 30 30 28 28 29 30 29 28 26 25 24 23 23 23 23 23 26 30 32 31 31 31 32 32 28 27 29 29 29 28 27 27 28 28 28 28 28 29 31 31 30 30 30 30 30 29 29 28 28 28 29 29 29 29 29 29 28 28 28 28 27 27 27 27 27 27 27 27 27 27 27 26 26 26 26 26
29 27 24 24 27 26 27 32 33 33 33 31 29 28 29 29 27 25 24 25 25 24 23 23 22 23 27 30 31 31 31 31 31 32 30 26 26 28 29 28 27 27 27 27 27 28 29 29 30 30 29 30 29 29 29 28 27 27 27 27 28 29 29 29 29 29 29 29 28 28 28 28 27 27 27 27 27 28 27 27 27 27 26 26 26 26
29 27 24 23 25 27 30 33 34 34 34 34 33 32 32 31 27 23 22 24 25 24 25 24 22 24 29 30 30 30 31 31 31 32 32 28 25 26 29 29 28 27 27 27 27 28 28 28 28 28 28 28 29 29 29 28 28 28 28 28 28 28 28 28 28 28 28 28 28 28 28 28 28 28 28 28 28 28 28 28 28 27 26 26 26 26
28 27 24 22 26 29 30 32 33 34 33 32 33 34 33 32 30 28 27 27 25 24 24 24 22 24 29 30 30 30 30 30 31 31 31 29 27 26 28 29 28 27 26 26 26 27 27 27 28 28 27 27 27 28 28 28 28 28 27 27 28 27 27 28 28 28 27 28 28 28 28 28 28 28 28 28 28 28 28 28 28 27 27 27 27 26
26 26 24 22 22 24 26 27 29 30 31 31 32 34 34 34 33 32 31 28 25 23 24 24 22 23 27 30 29 29 29 30 30 30 30 29 28 27 27 27 27 26 25 25 26 26 26 26 26 26 26 25 26 26 27 26 27 27 27 27 27 27 27 27 27 27 27 27 27 27 28 28 28 28 28 28 29 29 29 29 29 28 27 27 27 27
27 26 25 22 21 21 22 22 23 26 29 30 32 33 33 33 32 29 27 25 23 24 24 24 23 23 27 29 29 29 29 29 29 30 30 29 28 27 27 27 27 26 25 24 24 24 25 25 25 24 23 24 24 25 25 25 26 26 26 26 26 26 26 26 26 27 27 26 27 27 27 28 28 28 28 28 29 29 29 29 29 28 27 27 27 27
28 27 26 24 22 22 22 23 26 28 27 27 29 30 30 31 32 30 26 23 23 24 24 24 25 24 26 28 28 28 29 28 28 29 29 29 28 27 27 26 26 26 25 23 22 22 23 25 25 24 23 23 23 23 24 24 24 24 25 25 25 26 26 25 26 26 26 26 26 26 27 27 28 28 28 28 29 29 29 29 29 28 27 27 27 28
27 25 26 26 25 26 26 26 29 29 27 26 27 28 29 30 31 28 25 25 26 24 22 26 27 25 26 29 29 28 28 28 28 28 28 28 27 27 26 26 26 26 25 24 23 22 23 24 25 24 24 23 23 22 22 23 23 23 24 24 24 25 25 25 25 25 25 26 26 26 27 27 28 28 28 28 28 28 29 29 29 29 28 28 28 28
26 24 26 27 26 27 29 28 29 29 28 28 28 27 28 29 29 27 26 28 28 24 23 26 27 26 28 30 29 28 28 28 28 29 28 27 26 26 26 26 26 26 25 25 24 23 23 24 25 25 25 24 23 23 22 22 22 22 22 23 23 23 24 24 24 24 25 25 25 25 26 26 27 27 27 27 27 27 27 28 28 29 29 28 28 28
26 24 27 28 26 27 29 29 29 29 28 28 28 29 29 29 29 28 28 30 29 26 27 29 27 26 27 28 28 29 29 28 28 28 27 27 26 26 26 26 25 25 24 24 24 24 24 24 25 25 25 25 24 24 23 22 22 21 22 22 22 22 23 23 23 24 24 24 24 25 25 25 25 25 26 26 26 26 26 27 27 28 28 28 28 28
25 24 27 27 24 25 28 29 29 28 27 26 27 29 29 29 29 28 28 29 28 27 28 30 27 26 26 27 27 28 28 28 28 27 27 26 26 25 25 25 25 24 23 23 23 24 24 24 25 25 24 24 24 24 24 23 22 22 22 22 22 22 22 22 22 22 23 23 23 23 23 24 24 24 24 24 24 24 25 25 26 27 27 27 28 28
26 25 27 26 22 23 26 28 27 28 27 25 25 27 28 27 27 28 28 28 27 26 27 27 25 24 25 26 27 27 27 27 27 27 27 26 26 25 25 24 24 24 23 23 23 23 23 23 24 23 23 23 23 23 23 23 23 23 22 22 22 22 22 22 22 22 22 22 22 22 23 23 23 24 24 23 23 23 23 24 24 25 25 26 27 27
27 26 25 24 22 22 25 27 27 26 24 23 24 28 28 27 27 28 29 28 28 28 26 24 24 24 25 26 26 26 27 26 26 26 26 25 26 25 24 24 24 24 23 23 23 23 23 23 23 22 22 22 22 22 22 22 22 22 22 22 22 22 21 21 21 21 22 22 22 22 22 22 22 23 23 23 23 23 23 23 23 23 24 25 25 25
27 26 25 25 22 21 24 26 25 23 21 21 25 29 28 27 27 27 28 28 29 28 26 25 25 25 24 25 25 26 26 26 25 25 25 25 25 24 24 24 24 23 23 22 22 22 22 21 21 21 21 21 21 21 21 21 21 21 21 21 21 21 21 21 21 21 21 21 21 21 21 21 21 21 22 22 22 23 23 23 23 23 23 23 24 24
26 26 26 25 23 22 24 24 22 21 21 24 27 28 27 28 28 28 28 28 28 27 26 25 25 26 26 26 25 25 25 25 24 24 24 24 24 24 23 23 23 23 22 22 21 21 21 20 20 20 20 20 20 20 21 20 20 20 20 20 20 20 21 21 20 20 21 20 20 20 20 20 21 21 21 21 21 22 21 21 22 23 23 22 23 23
26 26 25 25 24 23 22 22 21 21 23 26 28 27 27 28 28 27 26 26 26 26 25 23 24 27 27 26 25 25 24 25 24 23 23 23 23 24 23 23 22 22 22 22 21 21 21 21 20 20 21 21 21 21 20 20 20 20 20 20 20 20 20 20 19 19 19 19 19 20 20 20 20 20 20 20 20 20 20 20 21 22 22 22 22 23
26 26 25 24 23 23 21 21 22 23 23 24 25 26 27 27 26 25 24 24 25 26 25 23 24 26 26 25 25 25 25 24 24 22 21 22 22 23 23 23 22 22 22 22 22 22 22 22 21 21 21 21 21 20 20 20 20 20 19 19 19 19 19 19 19 19 19 19 19 19 19 19 20 19 19 19 19 19 19 20 21 21 21 21 22 22
26 26 25 23 23 24 22 21 22 22 21 21 23 26 27 26 26 26 24 23 24 25 24 23 23 25 25 25 25 25 24 24 23 21 20 20 21 22 22 23 23 23 22 21 22 22 22 22 22 22 22 22 21 21 21 21 21 20 20 20 20 19 18 18 18 18 19 19 20 20 20 19 20 19 19 19 19 19 19 20 20 20 21 21 21 21
26 26 26 24 23 23 22 21 21 21 20 21 23 25 27 27 27 27 24 22 23 25 25 24 23 24 24 23 24 25 24 23 21 20 19 18 19 20 21 22 23 22 22 22 21 21 20 21 22 22 23 22 21 21 21 21 22 22 22 21 21 20 19 19 18 18 19 19 20 20 20 20 20 20 19 19 19 19 20 20 20 20 20 20 20 20
26 26 26 23 22 22 22 21 21 21 21 23 23 25 27 27 27 25 22 21 23 25 25 25 25 24 24 23 24 24 22 21 20 18 17 17 18 18 20 21 21 21 21 21 21 20 20 20 20 21 21 21 22 22 21 21 21 21 22 22 21 20 20 19 18 18 19 19 20 20 20 21 20 20 20 20 19 19 19 19 20 20 20 19 19 19
24 25 25 23 22 22 22 21 21 21 22 23 24 25 27 26 25 22 21 21 23 24 25 26 25 24 24 23 23 21 19 19 18 17 17 18 17 17 18 19 20 20 19 19 19 20 20 20 20 20 20 20 20 21 21 20 20 20 20 21 20 20 20 19 18 19 19 19 19 20 20 21 20 20 20 20 20 20 20 20 20 20 19 19 19 19
23 23 24 23 23 23 22 22 21 21 22 23 24 25 26 24 22 21 22 23 23 23 24 25 25 25 24 23 21 20 19 19 19 18 18 18 17 17 17 18 19 19 19 19 19 19 20 20 19 19 19 19 19 20 20 19 19 19 19 19 19 19 19 19 19 19 18 18 19 19 20 20 20 20 20 20 20 20 20 20 20 20 20 19 19 19
23 22 22 23 23 23 22 21 20 20 22 24 24 24 24 22 21 22 23 24 23 23 23 22 22 24 24 22 20 19 20 20 20 19 19 18 18 18 17 17 17 17 18 18 19 19 19 19 19 18 19 19 18 19 19 18 18 18 18 18 18 19 19 18 18 18 18 18 18 19 19 19 20 20 20 20 20 20 20 20 20 20 20 20 20 20
24 23 21 22 24 23 21 21 21 22 23 24 24 23 22 22 23 23 23 23 23 23 23 21 21 23 23 20 19 20 20 20 20 19 19 19 19 19 18 17 16 16 16 16 17 17 18 18 19 19 18 18 18 17 18 18 18 18 18 17 17 18 18 18 18 18 18 18 18 19 19 19 19 20 20 20 20 20 20 20 20 20 20 20 20 21
23 23 22 23 24 24 22 22 23 24 24 24 24 23 23 23 24 24 24 24 23 23 22 21 20 22 21 19 19 21 20 20 21 20 20 19 19 19 19 18 17 16 15 15 15 16 16 17 18 18 18 18 17 17 17 17 17 17 17 17 17 17 18 18 18 18 19 19 19 19 19 20 20 19 20 20 20 20 21 21 21 20 20 21 21 21
24 24 24 24 24 24 24 24 24 24 24 24 23 23 23 23 24 24 24 23 23 23 23 22 21 20 19 19 20 20 19 20 20 20 20 20 20 20 19 19 18 17 16 16 15 15 15 15 15 16 17 17 17 17 17 17 17 17 17 17 18 18 18 18 18 18 18 19 19 19 20 20 21 21 20 20 20 21 21 21 21 20 21 21 21 20
24 24 24 24 24 23 22 23 24 24 24 24 24 23 23 23 23 23 23 23 23 23 23 23 22 21 20 19 19 19 19 19 19 19 20 20 20 21 20 19 19 18 17 17 16 16 16 15 15 15 15 16 16 17 17 17 17 17 17 17 17 17 17 18 18 18 19 19 19 19 20 20 20 21 21 21 21 21 21 21 21 21 21 21 21 21
23 23 24 24 24 23 22 23 24 23 23 24 23 23 23 23 23 23 23 23 23 23 23 23 23 22 21 19 19 19 19 19 19 18 19 19 20 20 20 19 19 19 18 18 17 17 16 16 15 15 14 14 15 15 16 17 17 17 16 16 16 16 16 17 17 18 18 18 19 19 19 19 19 20 21 21 20 20 20 20 20 20 20 19 19 20
22 22 24 24 24 24 23 22 23 23 22 22 22 22 22 22 22 22 23 23 23 22 23 23 23 22 22 20 20 20 20 20 20 19 19 18 19 20 19 19 19 19 18 18 18 17 17 17 16 15 14 14 14 14 14 15 15 16 16 16 16 16 16 17 17 18 18 18 18 19 19 19 19 20 20 21 20 18 18 18 19 19 18 17 17 17
23 24 24 23 23 22 21 20 22 22 21 21 21 22 22 22 22 22 22 22 22 22 22 22 22 22 22 21 21 21 20 19 20 20 19 18 19 19 18 18 19 18 18 18 18 18 17 17 16 16 15 14 14 13 13 13 14 14 15 15 15 16 16 17 17 18 18 18 18 18 19 19 19 18 19 20 20 18 17 17 17 17 17 16 16 17
23 23 23 22 22 21 20 20 21 22 21 21 21 21 22 22 22 21 21 21 21 22 22 22 21 21 22 21 21 21 21 20 20 20 19 19 18 18 17 16 17 17 17 17 18 18 17 17 16 16 15 15 14 14 14 14 13 13 14 14 14 15 15 16 17 18 18 18 17 17 17 18 18 18 18 18 18 18 18 17 16 16 16 16 16 16
Height
768 779 781 779 774 768 764 760 755 752 757 758 758 764 766 785 802 787 780 777 770 786 797 794 798 800 802 801 795 793 790 790 793 792 793 792 791 793 793 792 794 796 796 796 799 802 804 807 810 813 816 818 820 822 825 828 830 831 833 835 837 838 840 841 843 845 846 847 848 849 850 851 852 854 854 855 856 857 858 860 862 863 864 864 865 866
770 782 777 768 763 757 756 756 752 755 762 760 758 767 768 772 785 783 779 776 770 788 801 791 791 798 802 803 798 794 795 793 792 792 793 791 791 792 792 793 794 794 793 794 798 800 803 806 809 812 814 817 819 822 825 827 829 831 832 835 837 838 840 841 842 844 845 847 848 849 849 850 852 853 854 855 856 857 858 860 862 863 864 864 865 865
780 781 768 758 754 752 756 755 756 762 765 762 758 765 769 763 771 782 781 776 773 789 804 793 792 799 799 801 801 798 797 794 790 788 789 789 790 792 793 793 793 794 794 795 797 799 802 805 807 811 813 816 819 821 825 826 829 831 832 834 836 838 839 841 842 844 845 847 847 849 849 849 851 853 853 854 855 857 858 860 861 863 863 864 865 866
784 774 758 752 751 754 760 757 761 770 767 762 760 759 761 757 767 784 787 785 782 787 799 797 800 806 802 801 802 798 796 793 790 790 790 789 789 789 790 790 792 794 796 797 797 798 800 803 806 809 812 815 818 821 823 826 828 830 832 834 836 837 839 840 842 844 845 847 848 849 849 849 850 852 853 854 856 857 858 860 861 862 863 864 865 866
772 759 749 750 753 756 762 764 768 776 771 762 757 752 753 755 759 768 774 780 781 780 784 790 808 819 810 807 806 799 799 797 794 797 797 792 788 787 787 788 790 791 794 796 796 797 799 802 805 808 811 813 816 819 821 824 826 828 830 833 835 837 839 840 842 844 845 847 848 849 850 850 851 852 854 854 856 856 858 859 860 862 863 864 865 866
761 748 747 752 756 760 768 772 771 773 771 764 755 748 750 753 755 763 769 776 788 791 778 779 809 825 811 805 805 802 805 803 799 800 798 792 790 789 789 789 789 789 791 792 794 796 797 801 805 807 810 812 814 817 819 822 824 827 829 832 835 836 838 840 841 844 845 846 848 849 850 851 851 852 853 853 854 856 857 858 859 861 862 864 865 865
755 748 752 757 760 768 774 774 768 765 769 767 752 742 748 754 757 767 772 777 792 795 778 773 796 818 815 806 799 800 806 804 802 802 797 794 793 791 789 788 788 788 789 791 792 794 796 799 803 806 808 810 812 815 818 820 822 825 828 831 834 835 837 839 841 843 845 846 847 849 849 850 851 851 852 853 854 855 857 857 859 861 862 863 864 865
752 756 764 764 766 772 775 775 766 760 769 770 751 739 748 757 762 767 770 776 780 777 775 773 780 802 815 806 793 795 805 806 805 807 801 795 793 790 787 786 786 786 787 790 792 793 795 798 801 804 807 808 811 814 816 818 821 824 828 830 832 835 837 838 840 842 844 846 847 848 849 850 850 850 851 853 854 855 856 857 859 860 862 863 864 865
752 765 770 767 771 773 769 767 760 757 766 765 753 747 749 755 759 759 765 772 769 776 787 778 774 796 807 799 794 796 805 810 806 804 802 796 792 790 786 785 785 784 784 786 789 791 793 796 799 802 805 807 809 812 815 817 820 823 826 830 832 834 836 838 840 842 843 845 846 847 849 849 850 850 852 853 854 856 856 857 859 860 861 863 863 864
753 759 760 762 769 768 761 757 752 757 764 756 753 757 755 756 758 757 765 768 769 784 794 778 775 798 804 797 803 804 803 805 799 795 797 794 792 791 787 784 783 783 783 783 786 788 791 794 798 801 803 806 808 810 813 816 819 822 825 828 831 833 835 837 839 841 842 844 846 847 848 849 850 851 852 853 854 856 857 858 859 860 861 862 862 864
752 750 753 756 760 755 752 753 749 752 757 753 759 766 764 763 762 763 762 764 782 795 787 772 767 789 804 796 798 803 794 789 789 790 793 791 791 791 788 785 782 781 782 782 783 785 789 793 796 799 802 804 808 810 812 815 817 821 824 827 830 832 834 836 838 840 842 844 845 846 848 849 850 851 852 853 854 856 857 858 859 860 861 861 861 863
760 762 763 755 750 747 747 751 749 749 755 758 766 771 773 772 770 774 770 772 800 804 780 766 759 776 800 789 778 783 777 772 779 785 788 788 787 787 787 785 781 779 780 781 783 784 786 791 794 797 800 803 807 809 811 813 816 819 822 826 829 831 833 835 837 839 841 843 844 846 847 848 850 851 852 853 854 855 857 857 858 859 860 860 861 862
768 767 764 757 751 749 755 759 758 761 764 766 770 775 784 787 787 795 793 789 802 795 772 763 762 773 786 774 765 770 767 764 769 773 777 781 782 782 782 783 781 780 779 779 782 783 785 789 792 794 798 802 805 808 810 812 814 818 821 824 827 830 832 834 836 838 840 842 844 845 846 848 849 850 851 852 853 855 856 857 857 858 859 860 861 861
774 766 759 761 759 753 760 768 770 773 771 772 774 779 788 794 803 811 803 794 795 785 766 758 764 777 780 772 765 765 764 760 762 768 769 770 775 776 776 778 781 781 781 780 779 781 784 786 790 793 797 801 804 806 809 811 814 817 819 823 826 829 831 834 835 838 839 841 843 844 846 847 848 850 851 851 853 854 855 855 856 857 858 859 860 860
778 778 763 762 762 758 761 762 760 761 765 767 764 768 778 781 792 801 793 788 786 777 767 764 773 779 778 775 767 763 764 759 761 769 768 765 767 770 772 776 779 782 783 782 779 780 783 785 789 792 796 799 802 805 808 810 813 816 818 822 825 828 830 833 835 837 839 840 842 844 845 846 847 849 850 851 852 852 853 854 855 856 856 857 859 859
770 770 752 749 751 752 761 756 747 753 762 760 755 766 775 765 768 777 773 768 769 772 770 769 773 768 765 770 765 767 770 760 759 767 769 766 763 765 772 774 776 781 784 784 782 780 781 785 788 791 795 798 801 804 806 809 812 815 818 821 823 827 829 832 834 836 838 839 841 843 844 845 846 847 848 849 851 851 852 853 854 856 856 857 858 859
773 766 749 750 751 747 755 752 746 755 761 756 759 770 764 750 754 770 773 762 764 782 777 764 766 763 765 774 765 763 769 761 758 761 763 765 763 765 771 773 774 778 782 784 784 782 781 784 788 790 793 796 799 803 805 808 811 814 817 819 822 825 828 830 833 835 837 838 840 842 843 844 845 846 847 848 849 850 851 852 853 855 855 856 857 857
775 775 756 754 762 752 745 748 747 747 749 757 765 760 750 752 756 765 778 776 778 792 780 764 767 765 772 785 771 759 767 769 763 756 757 763 767 769 769 771 774 775 779 783 783 784 783 784 787 789 792 795 799 802 804 807 810 813 816 818 821 823 826 829 831 833 835 837 838 840 842 843 844 845 846 847 848 849 850 851 852 853 854 855 856 856
772 783 766 750 759 754 743 752 759 749 744 750 751 741 748 771 776 773 785 788 786 791 782 772 769 758 762 776 773 766 769 772 765 756 756 760 767 773 770 769 774 774 778 782 783 785 785 784 787 789 791 795 798 801 803 807 809 811 814 816 818 821 824 826 828 831 833 835 837 838 840 842 843 844 845 845 846 847 848 850 851 852 853 854 855 855
768 784 780 754 747 752 753 761 769 762 752 749 748 745 748 762 767 769 776 778 779 783 781 777 771 762 760 761 763 766 767 766 760 756 761 762 763 771 771 768 772 774 776 779 781 783 783 784 786 788 791 794 797 800 802 806 808 810 813 815 817 820 822 824 826 829 831 833 835 837 838 840 841 843 844 844 845 846 847 848 850 851 852 852 854 855
766 780 787 767 749 755 764 764 762 761 759 760 765 763 757 755 755 760 765 764 768 778 779 778 777 776 770 759 754 758 760 759 756 757 766 770 765 766 768 768 771 774 775 776 779 780 781 782 784 787 791 793 796 800 801 805 808 810 813 816 817 819 821 823 825 827 830 831 833 835 837 838 840 841 842 843 844 845 846 847 848 849 850 851 853 854
772 779 783 776 765 763 763 753 745 746 748 755 762 762 758 757 761 774 779 763 757 768 770 771 782 785 773 760 756 756 755 755 754 754 761 770 772 767 765 768 771 774 776 776 777 779 780 782 784 787 790 793 796 798 801 805 808 810 813 815 817 818 820 823 824 826 828 830 832 833 835 836 838 839 840 841 843 843 844 845 846 848 849 850 851 852
775 780 783 781 770 764 759 746 738 739 741 745 749 750 752 753 758 776 785 768 757 762 758 757 775 783 768 757 759 758 755 753 753 752 755 765 774 771 764 766 770 773 775 776 777 778 779 782 785 787 791 793 796 798 800 804 806 808 811 813 816 818 820 822 823 826 828 829 831 832 833 835 836 837 839 839 841 841 842 843 844 845 846 847 849 850
778 783 789 788 774 763 758 749 742 743 745 748 745 741 747 750 750 757 761 758 757 759 758 762 776 780 766 756 758 759 758 757 755 755 757 763 770 771 767 766 770 773 776 778 778 779 781 784 786 788 791 794 797 798 801 804 806 809 811 813 816 817 819 821 823 825 827 828 830 831 832 833 834 836 836 837 838 839 840 841 842 843 844 845 846 847
786 788 792 800 797 786 777 770 764 755 752 754 746 739 741 742 746 748 746 753 763 759 755 764 777 781 771 760 760 762 761 761 758 756 759 763 766 770 771 769 770 773 778 781 780 780 783 786 787 789 791 794 797 799 801 805 807 810 812 814 816 817 819 821 822 824 826 827 829 830 831 832 833 834 834 835 836 836 838 839 839 841 843 844 844 845
787 790 791 802 813 809 802 798 788 771 761 755 748 746 748 748 754 757 754 764 777 769 758 762 775 784 778 767 765 766 765 766 764 760 760 763 766 769 770 771 772 773 778 782 783 784 785 786 788 790 793 797 799 800 802 804 807 810 812 814 815 817 819 820 822 823 825 826 827 828 830 831 831 832 833 833 834 834 835 836 837 839 840 842 842 843
785 787 786 794 802 802 801 798 785 773 768 764 759 760 762 760 758 760 766 775 777 773 767 763 768 780 780 774 773 772 769 770 770 765 764 766 768 770 771 772 772 774 778 782 786 789 789 787 787 791 795 798 800 802 803 804 806 809 811 813 815 816 818 819 821 822 824 825 826 827 828 829 830 831 831 832 833 833 833 834 835 836 838 839 840 840
788 790 785 786 790 787 786 785 777 773 775 775 774 773 770 766 763 767 776 775 770 776 779 769 765 772 773 771 774 774 772 773 772 769 769 769 770 773 774 774 773 775 777 781 784 788 790 788 787 790 794 797 800 803 803 804 806 808 810 813 815 816 817 819 820 822 823 824 825 826 826 827 828 829 830 831 832 832 833 833 833 834 835 837 837 838
792 794 784 781 784 779 776 777 775 773 774 776 778 777 773 771 769 773 776 769 767 779 782 773 773 776 771 769 771 771 772 773 771 769 769 771 773 775 776 777 777 777 778 780 783 787 790 788 787 788 792 795 798 801 802 804 806 808 810 812 814 815 817 818 820 821 822 823 824 825 826 826 827 828 829 831 831 832 832 832 833 833 834 835 835 836
791 794 784 781 784 779 775 775 773 773 775 776 775 774 775 774 771 772 773 769 770 776 773 770 776 781 778 775 772 769 769 771 770 770 771 773 776 778 778 779 780 781 782 783 783 785 786 786 786 788 790 793 796 799 801 803 805 807 809 810 812 814 815 817 819 820 821 822 823 824 825 825 826 827 828 830 831 832 832 832 833 833 833 834 834 835
790 794 786 783 788 784 777 775 775 777 780 779 776 773 774 774 774 773 773 773 776 778 773 769 775 784 783 777 772 772 772 772 773 774 775 776 777 780 782 783 784 785 786 787 787 786 786 786 787 789 791 793 795 798 800 803 804 806 808 809 810 811 813 815 817 819 820 821 822 823 824 824 825 826 827 828 830 831 832 832 833 832 833 833 833 834
788 791 785 787 796 791 778 777 778 776 779 782 781 777 775 778 779 775 775 779 780 780 778 775 779 790 789 780 777 778 776 776 777 776 777 777 778 782 786 787 787 788 789 790 789 789 790 790 790 792 794 796 797 799 801 802 804 805 806 807 808 809 811 813 815 817 818 819 821 822 823 824 824 825 826 827 829 829 831 832 832 832 833 833 833 834
786 791 789 792 801 796 781 779 780 781 790 794 782 772 774 782 784 776 773 777 776 777 784 787 786 789 788 784 784 783 780 780 781 779 780 781 781 784 787 787 788 789 789 791 791 792 793 793 794 796 797 798 800 802 803 803 804 805 806 807 808 809 811 812 814 816 817 818 820 820 821 823 823 824 825 826 828 829 830 831 832 832 833 833 833 834
786 791 791 792 801 800 786 781 786 798 809 803 781 769 773 781 783 780 778 779 775 775 783 787 786 787 787 787 787 785 782 782 783 783 784 785 785 787 788 789 790 790 791 793 794 796 797 798 799 800 800 801 803 804 805 805 806 806 807 808 809 810 811 812 813 815 816 817 818 819 820 821 822 822 823 824 826 828 829 830 831 832 833 833 832 833
789 790 789 789 797 798 787 789 808 819 812 795 780 775 776 776 775 777 779 779 777 778 784 789 788 784 782 783 784 784 784 785 785 786 788 788 788 789 791 793 793 793 795 797 798 800 801 801 803 803 804 805 805 805 806 807 807 808 809 810 811 811 812 813 813 814 815 816 817 819 820 820 821 821 821 822 823 825 827 828 829 830 831 831 832 832
792 791 789 787 792 796 795 804 818 816 799 786 781 779 779 778 778 783 788 787 784 784 789 794 790 780 778 782 783 783 785 785 787 790 792 792 791 790 792 795 797 797 798 800 801 802 802 803 805 805 806 806 807 807 808 809 809 810 811 812 813 813 814 814 814 815 815 816 817 818 819 820 820 819 820 821 823 824 826 827 827 827 828 829 830 831
791 792 792 793 793 794 800 804 802 798 799 798 791 785 784 785 786 791 797 796 790 786 789 795 791 782 780 782 782 783 785 787 793 798 798 797 795 793 794 796 799 800 802 802 803 803 803 804 805 806 807 807 809 810 810 811 811 811 812 814 814 815 816 816 816 816 816 817 818 819 820 820 820 819 820 821 823 824 825 825 825 825 826 827 828 828
788 790 794 800 795 788 796 806 803 805 816 817 803 788 783 784 784 785 793 800 797 790 790 796 795 788 785 786 785 785 788 794 801 806 805 802 800 798 798 799 800 802 804 806 807 806 807 807 807 807 808 809 811 811 811 812 812 812 814 816 816 817 818 818 818 818 818 818 819 820 820 820 820 820 821 822 823 825 825 824 824 825 825 826 826 825
788 787 789 796 794 787 795 807 810 813 818 816 805 791 781 782 781 781 794 806 802 791 788 792 793 790 790 792 790 788 794 803 809 810 810 809 807 805 804 803 804 806 808 809 810 811 812 812 812 811 811 812 813 813 813 813 813 813 814 816 817 818 818 819 819 820 820 820 820 820 820 820 820 821 821 822 823 824 824 824 824 824 824 824 824 824
789 786 786 792 792 790 795 800 805 812 813 805 800 792 783 780 782 791 808 812 802 793 789 788 789 790 792 793 791 792 801 809 813 814 813 812 811 811 810 810 811 812 813 813 814 815 816 816 816 816 814 814 815 814 815 816 816 816 816 817 818 819 820 821 821 821 821 822 822 822 821 821 822 822 822 822 822 822 823 823 823 824 824 823 823 824
792 788 787 789 789 789 794 798 804 813 812 802 797 792 784 783 792 807 817 811 800 796 791 786 786 789 791 792 795 801 806 809 811 813 813 811 812 814 815 816 816 816 817 818 818 819 819 820 820 820 819 819 819 818 818 819 819 819 820 820 820 820 821 823 822 822 823 824 824 824 823 823 823 823 823 823 823 823 823 823 824 824 823 823 823 824
797 793 788 787 787 787 788 796 809 818 811 800 796 790 786 797 811 814 808 801 798 797 792 788 787 787 788 792 798 804 806 806 808 811 812 812 813 814 816 818 819 820 821 821 821 822 822 823 823 823 823 824 824 823 822 822 822 822 823 823 823 823 823 824 823 824 825 825 826 825 825 825 825 824 824 824 824 824 824 824 824 824 823 823 823 823
797 797 795 791 788 789 791 802 820 824 809 796 796 796 797 808 815 810 801 798 798 797 795 796 794 789 789 795 801 804 805 806 808 810 812 814 815 816 818 821 823 824 825 825 825 824 825 827 827 827 827 827 827 827 825 825 825 825 826 826 826 826 826 826 826 826 826 827 828 827 827 827 826 826 826 825 825 825 825 824 824 824 824 824 823 823
795 800 807 803 794 796 804 811 817 815 803 795 799 803 805 806 804 802 801 799 798 798 798 801 799 792 793 801 805 806 807 809 810 810 812 815 817 818 822 825 827 828 829 829 828 827 828 830 831 831 831 830 830 830 829 829 829 828 828 828 828 828 828 829 829 828 828 829 830 829 828 828 828 827 827 826 826 826 826 825 825 825 825 825 825 825
798 798 806 804 795 797 804 806 803 801 798 797 799 801 802 801 798 798 799 798 799 799 799 802 802 796 798 805 806 805 807 809 809 809 812 815 817 819 823 827 829 831 831 831 831 831 833 835 836 834 833 832 833 833 832 832 832 831 831 831 830 829 830 831 831 830 830 830 831 830 829 829 828 828 828 827 827 827 827 827 826 826 827 827 827 827
795 793 797 799 795 796 799 798 797 799 799 799 800 801 801 800 798 798 798 799 800 799 797 800 802 800 802 805 805 806 809 810 811 812 813 813 816 819 822 826 829 831 832 833 833 834 837 839 839 838 836 834 835 835 835 834 834 834 833 833 832 832 832 832 832 831 831 831 830 830 830 829 828 828 828 828 828 828 828 828 828 828 828 828 829 829
793 793 796 797 797 802 805 800 797 800 801 799 801 802 801 801 801 800 800 801 800 799 798 799 799 800 803 805 806 808 811 811 812 815 814 815 818 820 822 825 828 830 832 833 834 836 838 839 840 840 839 838 838 837 837 837 836 836 835 834 834 835 834 834 834 833 831 831 831 831 830 830 829 828 829 829 829 829 830 830 830 830 829 829 830 830
801 800 797 796 797 801 806 802 797 800 802 800 801 803 802 803 803 802 801 801 800 800 800 799 799 800 803 806 808 809 810 811 813 814 814 816 819 820 822 826 828 830 832 833 835 837 838 839 839 839 839 840 839 839 840 840 839 838 837 835 835 836 836 835 835 834 833 832 832 831 831 831 830 830 830 830 831 831 831 831 831 832 832 832 832 831
803 802 798 798 798 798 802 803 799 802 806 805 804 805 805 804 805 805 803 802 802 802 801 800 800 801 802 806 808 809 811 812 813 814 816 818 819 821 823 826 828 830 832 833 835 837 837 839 839 838 839 839 839 841 843 843 842 841 838 837 837 837 837 836 836 835 834 833 832 832 832 831 831 831 831 831 832 833 834 834 834 834 835 835 834 833
799 799 795 798 802 805 811 812 806 806 811 811 808 808 807 806 806 807 806 805 805 805 805 804 804 803 804 806 807 808 811 813 814 815 817 819 820 822 824 826 828 830 831 833 835 836 837 838 839 839 839 840 840 842 844 844 844 842 840 839 839 838 838 837 836 835 834 833 833 833 833 832 832 833 833 832 832 833 834 835 835 836 836 836 835 835
797 797 796 802 806 808 812 813 807 806 809 810 808 808 807 806 807 809 810 809 808 807 806 806 807 806 806 807 808 808 810 813 815 816 817 820 822 823 824 826 828 829 831 832 834 835 837 838 839 839 840 841 842 843 843 843 843 842 841 841 840 839 840 840 838 836 834 834 835 835 834 834 834 835 835 834 834 834 834 835 835 836 836 836 836 836
Wind_Speed
8 7 9 10 11 14 14 16 17 6 5 11 9 8 8 6 6 7 6 8 11 9 10 14 12 12 12 13 13 12 12 13 13 13 12 13 14 13 14 13 14 14 13 16 18 18 18 17 17 16 16 15 14 14 14 14 13 12 12 12 12 12 12 12 12 11 11 10 9 9 9 9 8 8 8 8 8 9 10 11 11 9 8 8 7 6
8 9 10 12 15 15 14 17 15 7 8 12 8 5 7 6 7 8 6 8 9 5 5 12 11 11 11 11 11 11 12 13 12 13 14 15 14 13 14 14 14 13 13 16 17 18 18 18 18 17 16 16 16 15 15 15 14 13 13 13 13 12 12 12 11 11 10 10 9 9 8 9 9 8 8 9 8 9 10 11 10 9 8 8 7 7
8 10 11 14 15 13 13 17 12 7 11 12 7 6 8 6 7 9 6 5 6 2 2 7 7 7 9 9 10 11 11 10 10 12 13 15 15 13 13 14 14 13 13 15 16 17 19 19 19 18 16 17 16 16 16 15 15 14 13 13 13 12 12 11 11 11 9 9 8 7 8 7 9 9 8 9 9 9 10 11 10 9 9 9 8 7
7 10 12 13 14 14 15 14 9 7 11 10 8 9 7 7 8 6 8 9 9 6 6 8 5 4 5 7 10 11 10 9 9 8 6 8 12 14 15 14 14 15 14 15 16 16 18 19 19 18 17 17 17 17 16 16 16 15 14 14 13 12 12 11 12 11 10 9 6 5 6 4 8 9 7 8 9 9 11 11 10 9 9 9 8 8
9 9 11 14 14 14 12 9 8 9 10 9 12 11 1 6 8 3 6 11 10 9 10 11 6 3 6 8 9 9 8 8 8 6 4 6 9 12 15 14 14 15 15 15 16 16 17 18 18 18 17 18 18 17 17 17 16 15 15 15 13 13 12 12 12 11 10 11 8 7 6 5 8 9 8 9 10 10 11 11 11 10 10 9 9 9
10 5 6 14 13 10 9 9 12 11 9 9 13 11 5 3 4 3 4 7 6 6 7 8 5 4 9 10 9 8 8 8 9 10 11 10 8 10 13 14 14 15 14 15 16 16 17 19 18 18 18 18 18 18 18 17 17 15 16 16 14 13 12 12 13 12 11 12 11 9 9 9 9 10 10 10 11 11 12 11 11 11 10 9 9 9
8 6 3 8 9 11 12 11 13 12 10 7 8 13 6 5 0 4 6 6 5 4 4 7 6 2 6 10 11 12 11 11 11 12 13 10 9 11 13 13 14 15 15 14 15 16 17 18 19 19 19 19 18 18 18 17 17 16 16 17 15 13 12 13 14 13 12 12 12 11 11 11 11 11 10 9 10 11 11 11 11 11 11 9 9 9
7 7 7 9 8 11 11 10 12 14 11 2 6 9 11 5 4 5 7 6 5 4 4 7 8 3 4 8 11 14 13 12 13 13 13 12 12 13 14 14 15 15 15 14 15 16 17 18 20 19 19 19 18 18 18 17 17 17 16 17 16 14 12 13 15 15 13 12 12 11 11 11 10 10 9 9 10 9 8 10 10 10 10 9 8 9
7 6 8 13 11 10 10 11 13 13 11 2 9 8 6 7 10 7 7 7 5 6 5 7 7 5 3 5 9 14 13 13 14 14 15 15 14 13 14 15 15 15 15 15 15 16 18 20 21 20 19 19 18 18 17 17 17 17 17 17 16 14 13 13 15 15 13 12 12 11 11 10 9 8 9 10 10 9 8 9 9 8 10 9 8 8
8 8 8 12 11 9 10 11 14 13 11 5 3 7 7 7 9 7 6 6 6 7 7 6 7 6 3 6 9 10 11 13 14 13 14 16 15 13 14 15 16 15 14 15 15 16 19 21 21 21 20 19 18 17 17 17 17 18 17 17 17 15 13 13 15 15 14 13 12 11 11 10 9 9 10 10 9 8 8 9 9 8 8 10 9 9
2 4 3 8 9 10 11 11 14 13 10 6 1 6 9 8 7 7 6 5 6 8 8 9 9 7 5 5 9 9 10 12 12 11 13 16 17 16 13 13 15 16 14 14 15 16 19 21 21 21 21 20 18 16 17 17 17 18 18 18 17 16 14 14 15 15 15 14 12 12 11 11 10 9 10 10 9 9 9 9 9 9 8 9 9 9
3 3 3 6 8 9 10 13 12 8 8 9 5 7 9 7 7 8 7 5 7 7 7 10 10 10 7 3 8 10 11 14 13 13 17 19 19 18 15 14 14 14 15 15 14 15 18 19 21 22 21 20 19 18 17 17 17 18 18 18 18 16 15 14 15 15 15 14 13 12 12 11 11 10 9 10 10 10 9 9 9 8 8 8 7 8
6 7 7 9 9 8 7 9 9 6 8 10 8 8 8 7 7 7 7 6 7 7 6 8 9 9 6 2 8 10 9 11 12 11 17 20 19 18 18 16 12 9 12 15 14 14 15 16 19 21 21 20 20 19 18 17 17 17 18 19 19 17 16 15 15 15 15 14 13 13 12 12 11 10 9 9 9 9 9 9 8 8 8 8 7 8
7 8 10 11 9 8 8 7 7 7 10 10 8 8 8 7 8 8 8 8 8 8 8 8 6 7 4 4 7 9 7 8 10 8 12 18 20 19 18 18 13 8 7 11 14 15 13 15 19 20 20 21 20 19 19 18 17 17 17 19 19 18 17 15 15 15 14 14 13 13 13 12 11 11 9 9 8 9 9 8 8 8 9 9 8 8
8 8 11 12 9 11 13 12 8 6 9 11 10 9 9 8 8 7 7 8 8 8 9 8 5 5 4 4 4 4 3 7 10 11 13 15 18 17 16 16 16 12 7 6 11 15 15 17 20 20 20 21 20 20 19 18 17 16 17 18 19 18 18 16 15 15 14 14 13 13 13 12 12 11 10 9 8 8 9 8 8 8 8 8 9 9
9 5 11 14 10 13 16 15 12 9 7 10 10 10 10 9 9 8 7 9 8 6 7 8 5 2 4 9 8 6 9 11 11 15 17 16 16 16 15 15 16 15 11 6 7 13 16 19 20 20 20 20 20 20 19 18 18 17 17 18 19 19 18 17 15 15 14 14 14 13 13 13 12 12 11 10 9 8 9 8 8 8 7 7 8 8
8 2 12 13 8 9 14 14 13 11 6 6 9 10 9 9 10 9 8 9 9 7 6 6 7 5 7 9 9 11 11 8 7 11 15 15 16 16 15 15 14 16 15 9 6 8 12 17 19 20 21 21 20 20 19 18 18 18 17 18 19 19 18 18 17 16 15 14 14 14 14 14 13 13 12 12 11 11 10 8 8 9 9 7 7 8
5 3 10 12 8 8 11 12 14 14 11 5 6 9 10 9 10 9 7 8 8 8 6 7 10 9 7 5 6 9 8 7 8 9 10 14 16 15 14 14 14 16 16 13 9 7 9 14 17 19 20 21 20 20 20 18 18 18 18 18 19 19 19 19 18 17 16 15 14 15 15 15 14 13 13 12 12 12 11 10 9 9 9 9 9 9
3 5 7 10 10 11 10 10 11 14 15 12 7 5 8 8 8 7 7 7 8 9 6 8 11 10 6 6 8 9 7 8 10 10 11 13 14 12 12 13 15 15 15 14 12 10 10 14 18 20 20 21 21 20 19 18 18 18 19 19 19 19 19 19 19 18 17 16 15 15 15 15 14 13 13 12 11 12 12 12 12 11 10 9 10 9
3 5 3 6 9 10 9 8 8 10 13 13 9 6 7 7 7 8 7 7 8 8 7 8 10 6 1 1 7 11 9 7 7 8 9 9 11 11 11 12 12 12 14 15 14 12 12 15 21 22 20 21 20 19 18 17 17 17 18 18 18 19 18 18 18 18 17 17 16 15 15 15 15 14 14 13 12 12 12 13 13 13 13 12 11 10
4 5 3 5 7 9 8 8 10 9 11 11 8 8 8 6 6 6 7 8 8 8 6 7 7 2 4 4 3 9 10 7 4 6 9 8 7 9 11 12 11 10 12 13 13 12 10 13 19 21 20 20 19 17 17 16 16 16 16 16 17 17 17 17 17 17 17 16 15 16 15 15 16 15 15 15 14 14 13 13 13 13 13 14 12 12
2 5 5 5 6 7 5 9 15 12 8 10 10 9 9 7 6 7 7 9 9 8 8 7 4 3 4 3 4 7 6 6 6 5 9 12 8 6 9 14 13 11 12 12 11 12 12 13 16 17 17 17 17 17 16 16 16 16 16 16 16 17 17 17 16 15 15 15 15 16 16 15 16 16 16 16 16 15 14 14 14 13 14 15 15 14
4 5 6 6 6 4 4 5 11 7 6 10 12 11 10 8 8 7 7 7 8 9 10 9 5 3 4 2 4 5 3 5 6 4 6 11 10 6 8 13 14 13 12 12 12 11 12 15 17 16 16 15 15 15 14 14 14 13 13 13 14 16 17 17 16 14 14 14 14 15 15 15 15 16 16 17 17 17 16 16 15 15 15 16 16 15
3 5 5 6 6 5 4 5 7 7 9 11 11 12 12 11 11 9 8 7 7 9 10 9 6 3 6 4 4 5 4 4 5 5 5 7 9 7 6 10 12 12 10 10 11 11 12 15 16 16 17 15 13 14 13 12 12 11 11 11 12 14 15 15 15 15 14 13 13 14 15 15 15 15 16 17 17 17 18 17 17 16 16 17 16 16
4 4 3 5 5 5 6 7 7 10 10 9 9 11 11 12 12 11 9 8 7 9 10 9 6 3 5 4 5 6 6 5 5 6 7 5 7 7 6 7 10 11 10 10 11 12 12 13 12 12 13 12 11 13 14 13 11 10 11 11 11 12 13 13 13 14 15 15 14 14 14 14 15 15 16 17 17 17 18 18 17 16 16 16 15 15
5 4 4 5 5 5 4 2 3 6 7 9 10 7 7 9 12 10 7 7 6 8 11 9 3 5 4 3 5 6 6 6 5 5 7 7 6 7 6 6 8 10 10 9 8 8 10 11 12 13 12 9 9 13 16 15 12 10 10 11 11 11 11 12 13 13 14 15 15 15 15 15 15 15 16 16 17 17 17 18 18 17 18 19 18 16
5 5 5 5 5 6 3 3 5 6 6 8 6 5 7 10 12 10 7 6 4 5 10 7 1 5 7 4 4 4 5 6 5 4 7 7 6 6 5 4 6 8 10 9 8 7 9 11 13 15 15 12 10 12 15 16 14 12 11 10 9 10 11 11 12 13 13 14 15 16 16 17 16 15 16 16 16 16 16 17 18 18 20 21 20 17
5 6 7 7 7 8 5 4 8 7 5 4 4 7 9 10 13 10 9 9 5 4 7 4 8 3 7 7 6 5 4 5 5 5 6 6 6 6 5 5 5 7 9 10 10 9 8 10 12 15 17 16 13 11 12 14 14 14 13 10 8 9 10 9 10 12 12 13 14 15 17 18 17 17 16 15 15 16 16 16 17 17 18 18 17 17
6 6 6 8 8 9 8 8 10 10 6 4 5 5 5 8 12 11 12 14 10 8 7 6 12 6 1 4 7 6 4 5 5 5 7 7 6 6 6 6 5 6 7 7 9 9 8 8 10 13 16 17 15 13 11 12 13 15 15 15 12 11 10 9 10 11 11 12 13 13 14 14 15 16 16 15 14 14 15 15 15 16 17 17 17 17
4 5 6 8 8 9 10 9 9 10 7 7 8 5 3 6 8 7 10 11 9 10 12 7 5 6 7 5 6 5 4 5 5 5 8 8 7 6 6 6 6 7 8 8 8 8 7 8 9 11 13 14 15 15 12 11 12 15 17 17 17 17 15 14 14 13 12 13 13 12 12 11 10 10 12 13 13 13 14 14 15 15 16 17 17 17
2 3 4 7 7 8 10 10 9 9 9 10 10 8 7 7 6 4 4 6 7 8 12 13 6 3 5 4 6 5 2 5 6 6 8 8 8 8 7 7 8 9 10 10 9 8 7 6 7 8 9 9 12 14 13 13 13 14 16 16 17 19 20 20 19 17 16 16 14 14 15 15 13 12 10 10 11 11 11 12 14 15 15 16 17 17
4 4 3 6 8 7 9 12 12 9 9 10 11 11 9 6 6 4 1 2 5 6 9 12 7 2 1 1 5 4 4 5 6 7 7 7 8 8 8 8 8 8 9 10 9 9 8 8 8 8 8 7 8 9 10 12 13 13 14 14 15 17 19 21 21 20 19 18 17 16 19 21 21 21 20 18 16 13 11 10 11 12 13 15 16 16
3 4 4 5 6 5 7 9 9 9 9 8 9 9 5 3 6 6 0 2 4 4 3 6 2 2 2 3 4 5 5 6 6 6 5 6 8 8 8 8 7 7 8 8 8 9 8 9 9 9 8 8 7 7 5 5 6 7 7 9 12 15 16 17 19 19 19 19 18 18 19 19 20 22 22 22 22 21 18 15 14 14 13 13 14 15
3 4 5 4 5 6 6 5 7 9 8 4 3 4 2 1 4 4 2 5 6 5 3 1 1 2 3 4 4 5 5 6 6 7 6 5 5 6 7 7 7 8 8 9 9 9 9 10 11 10 9 9 9 8 7 6 7 7 6 4 4 7 10 11 13 14 13 13 13 15 16 17 18 20 21 21 20 21 20 19 17 16 13 12 14 15
5 4 4 4 4 5 4 5 8 8 3 1 2 5 5 4 5 4 2 4 8 9 7 5 3 3 2 2 5 9 9 8 8 9 8 4 3 6 7 7 7 9 9 9 9 9 11 13 13 12 12 11 10 9 9 8 8 8 7 7 6 6 5 6 6 5 4 4 4 5 9 13 14 17 18 19 20 20 21 21 18 15 15 15 16 17
6 5 4 4 4 5 4 6 7 3 0 2 1 4 5 5 5 5 4 3 9 8 6 6 6 2 2 4 6 8 8 8 8 9 10 7 3 5 7 8 8 9 9 10 10 11 13 14 13 13 13 12 12 12 11 10 10 9 9 8 7 7 7 7 7 7 6 4 3 1 3 7 9 9 9 11 14 17 18 20 19 18 18 17 18 19
6 5 4 4 4 5 5 5 4 2 2 4 2 4 5 4 4 5 4 2 7 7 5 6 8 5 2 5 6 6 6 6 6 8 11 10 6 6 9 10 11 11 11 12 12 13 13 13 13 13 13 13 13 13 12 12 12 12 12 11 10 11 10 10 10 9 9 7 5 4 3 3 3 4 3 4 8 12 13 14 14 16 17 17 18 22
5 4 4 4 4 4 4 4 5 5 3 3 5 5 5 3 3 4 4 0 5 7 5 6 8 6 1 2 3 5 6 5 4 6 8 9 9 9 9 10 12 14 14 13 13 13 14 13 13 12 13 14 14 13 12 12 12 13 13 12 12 12 12 12 12 11 10 9 7 5 5 5 5 6 6 4 3 5 7 7 9 12 14 15 18 21
6 5 4 5 5 4 4 5 5 4 2 1 5 7 6 4 3 4 5 2 4 6 3 2 5 5 1 2 3 4 5 4 3 6 7 9 10 10 9 10 12 14 14 14 14 14 13 12 12 12 13 14 13 13 12 11 11 11 11 11 11 11 12 12 12 12 10 9 8 7 7 7 7 7 7 7 6 5 2 2 4 8 10 11 14 17
5 5 5 6 6 4 4 4 2 1 3 4 4 7 7 6 5 7 7 2 5 8 5 4 4 3 2 3 3 2 1 2 4 7 8 9 12 13 12 12 13 14 13 14 15 14 13 13 13 13 14 13 12 12 12 11 11 11 10 10 11 11 12 11 11 11 11 9 9 8 8 8 9 8 7 6 5 5 4 4 2 3 4 4 7 10
4 4 4 5 5 3 4 4 2 3 3 7 6 7 8 6 6 6 3 2 7 9 7 6 3 1 1 2 2 1 2 6 9 9 9 10 11 12 14 15 15 15 15 16 15 14 13 14 13 13 14 14 12 11 10 10 11 12 11 11 12 12 11 9 10 10 10 10 9 9 8 9 9 8 8 7 6 4 3 2 2 4 5 4 4 6
3 3 3 4 4 3 3 1 3 4 3 7 7 6 8 6 5 2 4 4 7 8 8 7 5 1 1 1 3 4 6 9 11 11 11 11 11 12 14 16 16 14 14 14 14 13 13 13 13 12 13 12 12 11 10 11 11 12 11 12 12 11 10 9 9 10 10 9 9 9 9 9 8 8 8 8 7 6 4 3 3 4 4 4 5 6
3 3 2 2 3 3 4 0 3 3 4 7 7 4 6 4 2 4 5 5 6 8 7 7 6 3 2 3 5 8 9 9 11 13 13 11 11 13 15 16 14 13 13 13 13 13 12 12 12 12 12 11 11 11 10 11 11 10 10 11 11 10 9 9 9 9 9 9 8 8 8 8 8 8 8 8 8 7 7 7 7 7 6 6 8 9
2 3 3 3 4 3 3 2 3 2 4 7 5 3 5 4 3 4 5 4 6 6 5 5 6 4 5 7 7 9 10 9 11 13 13 12 12 14 15 15 14 13 13 15 17 18 16 13 11 11 10 10 11 11 11 10 10 9 9 10 9 9 9 8 7 7 7 7 6 6 6 6 7 7 7 8 8 8 7 8 8 9 9 8 8 9
2 3 3 3 3 4 4 5 4 2 3 5 5 5 5 4 4 5 6 5 5 5 4 4 5 4 8 8 7 9 8 8 9 12 13 13 13 14 15 14 13 13 13 14 16 16 16 14 13 11 11 11 11 10 10 9 9 8 9 8 8 8 8 7 6 7 6 6 5 5 4 4 5 6 6 6 6 7 7 7 7 7 7 7 7 8
2 1 2 3 2 3 2 3 4 3 3 5 5 5 5 5 6 7 7 6 6 5 5 4 4 4 5 6 8 8 7 7 7 7 10 11 11 14 16 15 14 14 13 12 12 12 10 9 10 11 12 12 11 10 8 8 8 7 7 7 8 8 7 6 5 6 5 5 5 4 4 3 4 5 6 5 5 5 5 5 6 6 5 5 6 6
3 1 3 3 1 1 1 3 5 4 3 4 4 4 4 5 6 7 6 6 6 6 6 5 4 4 6 8 9 9 9 9 8 6 8 9 9 11 13 13 13 14 13 12 10 8 7 7 6 7 8 9 10 10 8 7 7 6 7 8 8 8 7 5 5 5 5 5 5 5 5 6 6 5 5 5 5 5 5 4 4 3 3 4 4 3
1 5 5 3 2 1 2 4 5 4 4 4 3 3 4 5 6 7 6 6 6 6 5 5 4 5 6 7 9 9 9 9 10 8 8 8 9 11 12 11 12 11 11 10 9 6 5 6 6 6 7 8 8 9 9 8 7 6 7 8 8 6 5 5 5 5 5 5 6 6 5 5 5 5 5 5 5 7 7 6 5 5 5 6 7 5
3 6 3 2 4 3 4 4 3 4 5 4 4 5 5 5 6 6 6 7 7 6 6 5 5 5 4 5 7 7 8 9 9 10 9 9 9 11 11 11 10 10 9 8 7 6 5 5 5 6 7 7 7 6 6 7 7 7 7 7 6 4 4 4 3 3 4 5 5 5 5 4 5 5 5 4 6 7 8 8 7 7 7 7 6 6
5 6 2 2 5 1 3 1 2 0 2 2 4 4 4 4 5 6 6 7 7 7 6 6 5 5 5 4 4 6 7 8 9 10 10 9 10 12 13 11 10 10 10 9 7 6 5 5 5 6 6 6 6 5 2 3 5 7 7 6 5 5 4 3 2 2 4 5 6 6 6 5 6 6 6 5 5 6 6 7 7 6 7 7 7 5
2 3 2 3 3 2 4 1 4 3 0 3 3 2 2 3 3 4 5 6 7 7 7 6 5 5 4 3 2 3 6 8 10 11 10 10 11 13 14 12 11 13 13 11 9 8 7 6 5 6 7 6 5 5 3 2 3 5 6 7 7 6 5 3 2 4 6 7 7 7 8 7 6 6 6 6 6 4 3 4 5 6 8 9 9 8
Wind_Direction
198 207 210 213 214 209 211 223 233 253 306 269 242 229 229 168 172 200 180 176 197 205 179 185 183 158 170 183 178 179 186 191 185 178 179 181 180 178 180 178 172 173 170 169 174 175 169 168 167 165 167 168 166 163 157 160 162 158 157 153 155 157 153 153 156 160 162 159 159 159 158 156 152 149 149 151 153 149 143 145 154 155 155 159 158 161
197 222 214 211 221 214 215 231 240 261 285 272 255 208 233 225 171 166 177 182 195 206 168 184 181 155 164 180 179 180 191 197 192 184 183 185 183 179 182 179 175 176 171 169 174 175 171 170 167 165 169 169 166 164 162 166 165 164 163 157 160 161 160 163 161 164 166 162 163 163 165 160 150 155 160 159 158 151 145 150 159 158 160 161 162 166
197 229 221 210 221 221 221 229 237 263 259 254 253 221 226 219 153 145 165 192 190 155 143 190 178 154 162 172 179 188 197 201 201 195 186 186 185 178 183 180 176 178 173 169 174 177 174 171 168 165 170 170 166 166 168 170 167 167 166 159 164 164 164 168 163 167 167 161 166 163 168 162 151 160 164 155 155 151 149 155 160 160 163 163 164 170
201 222 223 214 218 222 219 219 227 258 253 244 241 239 216 173 173 171 166 185 206 188 173 185 163 134 162 168 186 197 198 201 212 207 186 197 194 182 183 182 180 179 173 174 175 176 175 172 170 168 171 170 168 170 172 172 170 171 169 163 166 166 165 168 163 166 163 157 157 149 154 136 136 153 151 143 151 151 151 156 160 162 164 165 166 169
227 206 214 217 212 221 217 202 220 238 238 237 238 247 261 155 197 221 153 173 205 195 175 178 153 135 186 179 188 199 198 207 218 205 191 220 206 188 186 184 184 181 175 179 176 175 176 174 173 171 172 173 171 173 174 175 174 173 171 166 167 166 165 166 163 161 156 155 154 147 147 120 124 145 149 156 161 155 155 159 162 164 166 168 167 168
237 187 213 220 193 196 217 208 218 232 232 228 231 243 328 360 177 136 157 176 210 211 188 199 190 169 192 189 184 184 188 205 214 204 198 202 199 196 193 187 187 184 180 184 178 176 176 175 176 175 176 179 176 175 176 176 176 173 171 169 167 166 165 165 163 160 156 159 160 157 164 159 150 157 165 172 167 159 167 165 159 163 167 170 169 169
228 155 190 230 180 186 216 222 217 228 236 229 224 219 237 327 100 157 209 208 225 232 196 228 244 184 181 195 190 180 185 194 200 208 203 194 200 204 196 190 191 186 183 187 182 179 178 176 177 177 180 182 178 177 177 177 175 171 170 170 168 167 166 164 164 164 163 165 166 166 171 171 168 168 168 170 164 163 169 161 152 160 166 170 173 171
213 155 183 217 208 207 215 220 215 222 229 275 336 237 203 235 249 201 222 231 250 250 193 216 243 250 191 203 194 178 183 193 191 203 206 196 201 202 195 193 193 190 185 186 184 180 181 180 179 180 182 183 180 177 178 178 174 169 170 171 170 169 166 165 165 167 168 169 171 173 173 174 173 167 157 156 161 163 155 146 150 159 163 169 174 170
183 177 198 208 213 221 215 211 212 219 225 240 349 302 223 236 252 234 230 236 246 254 232 209 216 242 215 181 188 177 180 198 193 194 201 200 200 202 201 194 191 195 190 186 186 183 183 183 182 182 182 184 182 177 178 178 172 168 170 171 171 171 167 165 165 169 172 171 173 175 173 172 171 161 157 156 152 150 144 143 153 157 159 169 171 167
175 194 208 211 212 221 213 214 214 213 229 230 336 297 264 256 263 260 248 240 238 247 249 221 202 236 237 147 169 183 185 197 194 190 198 200 199 203 208 199 191 194 192 188 188 185 184 183 181 182 182 184 183 176 175 176 172 169 170 172 173 173 171 168 168 171 173 172 173 177 173 170 168 160 164 163 147 146 150 149 156 155 162 173 171 169
143 168 231 230 220 222 207 212 218 210 234 246 237 271 252 236 247 252 249 243 247 246 245 238 213 215 238 156 157 187 199 196 190 189 196 198 195 195 207 208 195 190 191 191 188 185 184 182 181 182 181 182 181 178 176 175 173 171 170 173 174 174 174 172 172 174 174 175 176 178 174 171 170 165 165 165 157 160 161 160 165 167 174 180 176 176
156 167 250 240 231 246 223 208 209 204 243 246 230 250 239 219 224 236 240 235 246 251 249 250 229 211 232 200 153 175 194 193 190 190 192 195 194 187 195 208 201 192 191 190 188 186 182 180 183 183 180 181 182 181 180 176 173 172 170 173 174 176 176 175 176 177 177 178 179 179 178 174 173 172 171 170 170 171 171 170 170 168 176 184 185 184
194 199 203 211 219 251 248 210 195 198 236 236 228 236 230 219 215 221 231 228 237 252 252 249 240 226 231 169 151 171 188 190 188 190 188 188 192 188 188 197 202 202 196 190 188 187 182 180 184 183 180 182 184 183 183 180 174 172 172 172 175 177 177 178 180 180 182 181 181 183 182 178 177 177 176 175 175 176 176 177 175 173 178 185 192 193
191 194 191 195 197 206 219 212 191 192 212 217 220 224 223 218 214 220 228 229 234 238 240 241 238 234 218 130 147 167 183 184 173 191 198 186 188 191 187 188 194 209 214 200 192 186 183 182 183 183 181 182 185 183 182 183 176 172 172 173 176 179 178 180 181 181 184 183 183 185 185 183 181 181 182 182 182 182 180 181 185 189 189 186 193 200
201 200 190 189 176 179 206 230 232 209 200 208 220 225 229 227 225 233 227 229 235 224 225 226 228 250 219 164 142 133 203 203 164 175 202 193 186 186 184 186 190 197 217 225 201 188 183 184 184 183 183 183 184 183 182 182 178 175 173 173 177 179 179 181 183 183 184 185 186 186 187 188 186 186 188 188 189 187 186 188 189 197 202 191 189 197
234 219 168 181 185 176 196 226 244 247 215 195 210 224 229 231 236 251 252 255 262 242 224 216 223 272 135 149 164 178 209 212 172 170 187 187 181 177 178 186 187 189 201 221 210 192 183 184 186 183 184 185 183 183 184 181 180 179 175 175 179 180 180 181 184 186 186 187 189 187 188 191 190 191 189 187 189 189 191 193 186 193 208 197 183 189
249 219 140 172 207 187 195 213 223 245 246 182 197 220 226 237 246 252 252 255 265 261 241 225 221 198 144 154 182 187 190 194 184 182 178 169 170 175 178 183 184 183 191 199 202 196 185 184 187 186 184 185 183 184 185 182 183 183 178 177 179 180 181 182 184 188 188 188 190 190 191 192 192 195 194 190 191 192 192 193 192 195 202 204 198 196
267 248 151 173 208 199 206 214 210 229 250 231 204 205 207 230 250 258 255 242 243 246 238 239 240 219 187 181 189 185 176 176 193 194 177 160 160 172 180 178 179 180 184 189 190 198 195 186 188 190 186 184 184 186 185 183 185 185 183 183 182 182 183 186 187 189 189 190 192 193 193 195 195 198 202 199 197 197 194 193 201 206 202 203 208 209
274 254 174 183 208 192 197 220 211 214 233 250 260 212 201 219 226 232 254 251 237 236 229 231 242 239 215 174 170 186 189 185 190 183 176 163 148 160 179 174 174 177 178 183 187 193 198 191 190 192 190 185 186 187 184 184 187 187 187 188 187 186 186 189 191 191 192 193 195 195 195 197 199 200 205 205 202 201 200 198 199 206 215 214 210 213
257 261 186 206 214 175 174 215 213 197 214 242 271 253 224 235 226 210 225 249 249 244 232 222 225 230 281 144 166 173 168 169 179 158 150 148 142 157 173 171 170 175 176 178 181 186 192 192 190 190 190 186 185 187 182 184 191 189 186 190 192 189 188 192 193 191 194 196 196 197 195 197 200 202 205 206 206 206 206 206 201 201 210 213 211 214
242 256 219 226 215 181 179 205 213 202 197 212 235 235 219 220 234 225 217 230 249 257 248 237 226 156 38 8 103 131 133 135 146 134 129 139 159 166 165 168 170 173 176 173 174 180 185 191 189 185 188 185 181 186 183 182 191 189 186 194 195 188 188 195 195 192 195 198 197 197 197 198 199 202 205 205 207 209 207 209 208 202 202 204 211 216
295 269 246 234 218 211 202 203 213 215 205 204 211 223 225 212 216 231 223 219 234 254 259 255 238 110 70 18 72 96 113 127 133 139 133 134 155 188 168 163 165 167 172 168 170 179 178 180 178 170 174 178 175 180 181 179 185 185 184 190 189 184 188 196 197 195 196 197 199 199 199 200 200 203 207 207 207 209 208 208 208 208 209 208 209 212
355 284 264 253 238 273 329 243 229 236 243 232 215 212 228 228 221 230 235 225 222 234 250 261 256 127 101 77 76 81 88 107 116 123 115 118 136 181 170 154 158 162 165 166 168 173 169 170 167 157 156 163 166 170 170 169 175 176 175 178 179 181 188 193 195 197 198 199 202 203 203 203 203 204 207 210 210 211 211 210 208 209 212 212 207 205
335 274 266 264 261 285 292 260 251 248 243 239 219 207 217 223 224 230 238 243 239 230 231 245 248 163 115 107 99 95 96 99 109 120 114 107 123 143 143 143 152 152 155 169 169 164 163 163 161 155 149 148 152 156 155 159 168 171 170 173 176 182 188 191 193 196 197 200 203 206 208 207 207 209 210 212 213 213 213 213 212 210 210 214 212 203
310 284 272 260 256 245 225 214 218 219 225 236 225 215 219 230 241 244 234 232 253 260 248 241 235 138 101 121 128 118 127 130 121 125 127 118 119 126 133 143 146 145 153 169 168 165 166 160 148 134 124 121 130 141 145 149 158 165 169 172 176 181 186 190 194 195 196 199 203 208 213 210 210 214 215 216 216 216 215 216 215 210 208 218 221 207
291 285 282 265 252 244 229 216 240 225 218 225 227 232 248 254 259 264 248 228 242 264 261 258 231 121 117 153 138 129 138 128 115 128 127 121 121 116 121 142 149 148 147 149 158 170 174 166 148 127 118 117 123 132 137 139 145 158 169 176 177 176 179 184 191 196 198 200 203 207 212 214 215 218 218 220 221 220 218 217 216 211 210 216 222 215
283 267 262 268 270 275 304 325 286 276 254 238 241 271 275 258 254 259 255 245 261 257 246 262 319 141 141 137 149 155 148 129 124 137 126 122 126 110 91 110 140 148 147 150 163 171 177 174 155 140 143 151 146 140 142 143 146 152 158 169 176 176 180 184 187 195 201 205 207 208 211 214 216 219 220 221 222 223 222 219 217 214 212 214 217 220
291 270 248 249 250 255 263 251 249 254 263 269 270 269 263 250 247 252 248 252 291 278 238 332 355 236 164 143 167 169 146 149 159 152 130 119 121 115 103 97 107 131 147 157 160 157 172 177 157 149 155 159 159 161 162 164 170 171 169 178 188 186 189 189 189 194 200 206 211 212 214 215 215 217 220 221 222 224 226 224 220 218 216 216 215 219
289 276 257 255 248 243 236 216 222 228 214 203 224 250 267 250 238 239 245 251 272 270 254 4 8 332 332 116 149 149 150 173 165 140 124 115 111 116 129 126 104 103 116 131 142 151 174 178 158 155 158 158 164 170 171 176 187 193 197 204 213 212 208 208 206 206 207 209 211 213 218 220 218 215 217 219 220 222 224 226 225 221 218 219 218 216
276 279 272 270 263 247 234 217 224 240 238 227 229 234 278 273 251 240 245 253 271 273 266 289 5 27 25 49 105 111 135 157 145 127 120 119 119 119 130 131 112 101 96 92 104 128 157 163 160 163 164 167 173 176 177 182 188 197 204 209 214 215 217 222 221 219 219 218 216 215 218 221 218 209 209 214 217 220 225 227 227 224 220 218 219 218
244 270 277 279 271 244 231 228 231 246 260 262 256 249 255 267 263 252 258 271 279 269 259 258 247 81 41 46 81 82 129 157 153 143 125 117 118 118 119 116 108 105 100 90 85 88 99 114 128 141 150 169 181 184 190 196 195 199 204 207 212 215 219 222 222 221 222 223 223 224 226 228 228 224 222 222 217 216 226 232 233 233 228 222 221 222
260 264 259 261 260 240 227 230 227 233 255 262 255 248 248 267 280 274 283 312 293 276 257 256 249 149 115 106 102 116 172 169 153 140 127 121 118 117 117 112 111 110 104 100 98 93 93 97 102 109 116 138 164 174 189 198 197 200 204 206 209 214 219 222 221 220 222 225 226 229 234 239 242 244 247 249 242 235 239 248 250 246 239 232 226 222
284 282 271 259 261 253 240 242 241 244 253 255 251 245 227 233 272 270 102 50 338 327 276 264 280 101 174 187 155 163 174 161 142 116 105 115 117 122 126 122 123 118 104 102 105 99 93 88 86 90 95 98 107 118 138 167 171 170 186 204 211 213 216 219 221 222 225 229 230 232 235 238 240 242 244 246 247 247 249 252 253 250 245 240 234 230
301 277 263 260 266 258 244 243 244 240 241 258 315 324 350 192 261 277 8 18 4 17 25 291 194 151 194 200 170 147 129 123 115 95 85 95 109 119 122 117 118 116 103 98 100 99 97 93 88 88 88 84 86 96 103 103 102 101 104 125 169 194 202 207 212 217 221 225 228 230 232 233 235 236 233 233 236 238 240 241 240 240 240 240 241 238
301 281 254 237 249 256 240 226 231 231 237 295 12 8 349 311 299 295 298 6 15 25 17 333 267 179 180 168 114 102 96 92 89 86 78 63 87 116 117 110 109 110 104 97 97 101 102 100 98 98 97 97 100 103 103 101 101 99 93 93 101 117 139 147 150 160 169 172 186 214 227 233 239 238 233 230 229 230 235 234 230 229 228 232 238 232
301 295 275 246 239 242 227 225 230 213 139 248 156 33 340 302 311 300 271 360 13 17 18 339 309 317 98 122 118 111 113 111 94 74 53 29 36 114 117 112 107 102 99 99 100 102 102 99 97 97 96 98 99 98 96 96 98 100 97 92 93 94 94 95 93 89 88 96 100 119 217 228 237 241 241 239 233 234 237 232 224 225 227 229 234 229
297 299 290 265 238 238 236 236 237 199 200 261 303 33 355 325 351 324 277 16 11 359 15 358 328 329 93 140 140 130 136 143 119 72 40 20 33 84 95 104 110 106 99 98 99 98 98 97 98 99 98 95 91 90 93 96 96 96 93 89 86 82 76 74 74 71 73 83 98 116 141 165 194 207 217 242 240 238 240 231 223 227 230 230 229 226
280 286 299 289 245 236 243 239 244 235 217 291 320 355 3 338 335 314 274 320 20 5 10 354 331 331 8 166 159 145 162 184 153 88 44 23 41 70 80 90 100 102 101 102 100 94 90 90 95 99 98 94 92 91 93 97 99 98 95 92 89 83 75 70 68 66 63 62 71 93 108 102 96 108 116 124 173 214 233 233 227 232 235 233 231 230
267 254 262 268 250 247 251 236 247 258 170 156 311 326 339 330 302 280 249 228 12 6 10 339 328 335 331 246 219 179 185 204 148 93 62 35 37 52 71 83 86 88 92 94 90 83 76 75 81 87 87 85 85 86 85 84 89 95 96 95 90 84 76 68 65 67 66 57 56 67 78 81 79 85 96 107 117 124 126 174 214 232 237 232 230 232
255 242 232 245 251 263 269 247 225 63 74 60 338 314 327 340 304 266 238 217 358 348 341 334 335 351 332 279 252 214 181 145 114 95 81 62 45 41 51 68 77 77 74 73 75 74 69 63 58 55 58 59 61 71 77 77 78 80 80 82 81 77 74 67 62 65 68 65 64 65 68 71 70 71 82 93 99 94 80 76 112 177 193 196 204 206
259 259 256 260 258 250 254 251 146 108 33 4 333 312 333 331 276 258 253 324 333 332 329 324 333 63 37 306 316 25 91 114 117 116 112 100 80 63 59 61 66 69 66 58 55 59 64 65 60 52 44 38 39 50 62 67 70 71 68 67 67 66 66 64 60 61 64 66 68 69 71 74 72 71 75 80 84 88 88 93 117 128 132 129 156 182
265 252 246 260 274 268 258 254 125 134 35 351 317 319 354 329 264 308 3 328 323 336 336 329 337 38 98 48 76 102 123 126 128 133 129 115 104 97 86 74 65 64 67 63 55 56 61 61 58 56 50 40 33 38 51 58 61 64 64 60 56 56 57 55 54 58 58 59 64 69 72 75 76 75 73 73 76 81 82 100 118 113 117 124 129 138
328 306 283 297 332 304 275 281 110 126 46 359 316 325 24 9 334 10 353 337 355 356 346 340 334 328 32 65 96 118 125 125 128 133 130 118 108 104 100 93 80 63 58 54 46 50 62 65 58 52 47 42 37 35 42 52 55 57 61 57 50 49 52 52 53 56 54 49 51 60 67 71 73 78 79 74 71 70 66 67 74 77 81 92 102 106
341 332 336 2 12 334 308 49 81 85 43 18 351 36 58 34 22 7 339 357 16 3 358 344 309 311 48 65 96 122 129 135 137 136 134 129 122 115 109 104 95 77 61 52 44 40 41 46 55 59 53 47 42 38 40 47 50 51 55 55 50 48 48 49 53 61 62 54 46 47 57 65 66 68 74 75 73 73 70 66 62 62 66 72 79 86
27 10 340 336 4 17 23 55 82 99 70 53 47 57 54 33 27 12 1 23 27 8 14 346 313 4 61 81 111 124 131 139 141 141 142 141 137 129 122 117 110 98 85 75 70 62 48 32 28 39 51 50 44 40 40 42 43 43 44 46 49 50 46 41 47 59 66 66 57 44 46 72 81 73 69 69 71 70 68 69 69 63 63 67 68 68
78 30 307 307 13 60 64 86 102 103 84 79 77 63 41 26 24 15 13 29 24 9 22 15 355 33 77 115 124 119 116 114 119 136 142 141 137 132 130 130 128 122 114 107 105 101 90 64 36 28 34 36 34 33 35 40 41 40 40 43 46 47 44 38 44 54 58 63 63 46 32 54 75 79 76 72 71 71 65 61 67 71 73 76 78 77
121 297 272 270 323 15 140 111 102 96 76 73 88 90 64 37 27 21 22 29 21 14 27 29 25 60 93 115 124 126 126 124 128 137 135 132 134 132 129 130 132 132 133 133 130 126 124 117 94 61 44 33 25 22 24 36 45 41 44 51 48 40 33 29 36 47 51 58 61 49 38 35 33 44 64 68 63 69 73 66 64 72 67 53 52 74
118 281 272 255 276 282 122 109 104 99 76 49 40 58 57 42 35 27 23 31 32 24 30 37 40 63 93 123 140 143 141 139 138 135 132 138 145 143 137 136 139 139 138 141 145 149 147 138 119 98 80 60 41 26 17 25 39 40 42 48 47 38 31 25 24 30 36 44 48 46 46 44 28 24 47 65 59 52 48 44 51 64 56 35 20 13
197 253 262 269 271 238 139 135 142 125 97 63 50 52 44 36 37 31 24 33 39 30 30 44 49 57 93 142 157 156 157 155 149 143 140 143 149 148 144 147 152 151 146 152 163 166 153 138 122 106 93 81 72 51 18 14 25 33 41 48 44 38 39 34 26 34 41 46 50 44 39 47 45 25 24 59 83 72 49 37 40 53 55 40 25 20
215 252 244 239 265 255 107 56 314 75 123 97 75 64 49 41 43 37 28 32 38 35 32 43 52 62 90 131 168 173 165 161 164 161 150 143 145 144 143 151 161 158 155 157 158 150 137 129 125 118 107 98 101 107 87 25 21 23 33 47 49 43 43 34 23 48 49 44 44 33 19 30 47 32 12 21 58 77 73 62 53 49 48 42 31 28
210 307 319 293 309 62 112 235 305 323 93 116 98 72 50 43 40 46 42 34 37 37 33 35 42 53 80 103 169 195 176 173 178 173 160 156 157 150 147 151 152 148 150 154 156 156 153 147 142 131 121 118 120 125 126 105 56 32 29 35 38 41 50 48 36 50 54 50 43 25 12 21 37 33 20 17 21 30 62 91 87 67 53 50 44 36